Location: Stockholm
(59.3330°N, 18.0500°E)
Time: 13:17:03
(UTC+02:00)

Envisat - Visible Passes

Search period start: 21 May 2024 00:00
Search period end: 31 May 2024 00:00
Orbit: 762 x 764 km, 98.3° (Epoch: 20 May)

Date Brightness Start Highest point End Pass type
(mag) Time Alt. Az. Time Alt. Az. Time Alt. Az.
22 May 5.6 02:30:30 10° NE 02:32:53 13° E 02:35:15 10° ESE visible
25 May 5.8 02:18:29 10° ENE 02:19:32 11° ENE 02:20:34 10° E visible
30 May 5.6 02:28:37 10° NE 02:30:55 13° E 02:33:11 10° ESE visible
